Regional Weather Roundup
Issued by NWS

Home | Current Version | Previous Version | Graphics & Text | Print | Product List | Glossary Off
Versions: 1 2 3 4 5 6 7 8 9 10 11 12 13 14 15 16 17 18 19 20 21 22 23 24 25 26 27 28 29 30 31 32 33 34 35 36 37 38 39 40 41 42 43 44 45 46 47 48 49 50

000
ASUS43 KMKX 010121
RWRWI

WISCONSIN REGIONAL WEATHER ROUNDUP
NATIONAL WEATHER SERVICE MILWAUKEE/SULLIVAN WI
800 PM CDT FRI OCT 31 2014

NOTE: "FAIR" INDICATES FEW OR NO CLOUDS BELOW 12,000 FEET WITH NO
SIGNIFICANT WEATHER AND/OR OBSTRUCTIONS TO VISIBILITY.

WIZ001-002-006>008-014>016-023>028-010200-
NORTHWEST WISCONSIN

CITY           SKY/WX    TMP DP  RH WIND       PRES   REMARKS
SUPERIOR ARPT  CLEAR     27  20  74 CALM      30.50R
ASHLAND        CLEAR     23  21  92 SE3       30.51S
HAYWARD        CLEAR     27  20  75 CALM      30.48F
SIREN          CLEAR     26  19  74 CALM      30.49F
CUMBERLAND     CLEAR     27  19  74 N3        30.48S
RICE LAKE      CLEAR     27  19  72 CALM      30.50S
CHETEK         CLEAR     32  21  64 CALM      30.49S
LADYSMITH      CLEAR     28  20  72 CALM      30.49F
EAU CLAIRE     CLEAR     26  17  68 NE5       30.48S WCI  20
MENOMONIE      CLEAR     31  20  63 N3        30.50R
NEW RICHMOND   CLEAR     26  19  72 CALM      30.49F
OSCEOLA        CLEAR     26  19  73 CALM      30.51F
$$

WIZ003>005-009-010-017-018-010200-
NORTH CENTRAL WISCONSIN

CITY           SKY/WX    TMP DP  RH WIND       PRES   REMARKS
MANITOWISH WTR CLEAR     24  21  87 CALM      30.45S
ARBOR VITAE    PTCLDY    25  20  83 N5        30.45R WCI  19
WOODRUFF       PTCLDY    25  20  83 N5        30.45R WCI  19
RHINELANDER    MOCLDY    28  18  66 N7        30.44R WCI  21
EAGLE RIVER    CLOUDY    28  19  71 N5        30.43S WCI  22
LAND O LAKES   CLOUDY    28  22  76 N8        30.44S WCI  20
PHILLIPS       CLEAR     26  19  75 CALM      30.46S
TOMAHAWK       CLOUDY    29  19  66 CALM      30.45R
MEDFORD        CLEAR     27  19  72 N7        30.45R WCI  20
MERRILL        PTCLDY    30  20  66 N6        30.44S WCI  24
$$

WIZ029-030-035-036-043>047-010200-
CENTRAL WISCONSIN

CITY           SKY/WX    TMP DP  RH WIND       PRES   REMARKS
WAUSAU         CLEAR     31  18  58 N7        30.43R WCI  24
MOSINEE        PTCLDY    30  21  69 N7        30.44R WCI  23
MARSHFIELD     MOCLDY    32  20  61 N9        30.44R WCI  24
STEVENS POINT  CLEAR     28  17  62 N5        30.45R WCI  23
WAUPACA        CLEAR     31  18  58 N5        30.45R WCI  27
WAUTOMA        CLEAR     30  17  58 CALM      30.44R
WISC RAPIDS    CLEAR     30  19  63 N8        30.46R WCI  22
CAMP DOUGLAS   CLEAR     23  19  87 CALM      30.45R
$$

WIZ011>013-019>022-031-037>040-048>050-010200-
NORTHEAST WISCONSIN

CITY           SKY/WX    TMP DP  RH WIND       PRES   REMARKS
ANTIGO         CLOUDY    30  19  65 N12       30.42R WCI  20
SHAWANO        CLEAR     33  20  58 N9        30.45R WCI  25
OCONTO         CLOUDY    33  22  64 N8        30.44R WCI  25
STURGEON BAY   CLOUDY    34  19  55 N21G30    30.41R WCI  22
GREEN BAY      MOCLDY    33  20  58 N14G22    30.43R WCI  23
MANITOWOC      CLOUDY    35  22  58 N15G23    30.40R WCI  25
APPLETON       MOCLDY    34  16  47 N20       30.42R WCI  22
CLINTONVILLE   CLEAR     32  18  55 N7        30.44R WCI  26
OSHKOSH        CLOUDY    34  19  54 N13       30.41R WCI  25
$$

WIZ032>034-041-042-053>061-010200-
SOUTHWEST WISCONSIN

CITY           SKY/WX    TMP DP  RH WIND       PRES   REMARKS
LA CROSSE      CLEAR     33  20  58 N5        30.47R WCI  29
SPARTA         CLEAR     32  19  58 N3        30.47R
VIROQUA        CLEAR     31  20  64 N7        30.43R WCI  24
BOSCOBEL       CLEAR     34  17  50 CALM      30.46R
PRAIRIE DU CHI CLEAR     32  19  59 CALM      30.45S
PLATTEVILLE    CLEAR     30  19  63 N8        30.43R WCI  23
$$

WIZ056-057-062-063-064-067-068-010200-
SOUTH CENTRAL WISCONSIN

CITY           SKY/WX    TMP DP  RH WIND       PRES   REMARKS
REEDSBURG      CLEAR     32  18  57 N7        30.43R WCI  26
BARABOO/DELLS  CLEAR     32  17  52 N9        30.42R WCI  25
LONE ROCK      CLEAR     37  17  44 N7        30.44R WCI  32
MINERAL POINT  CLEAR     32  18  55 N7        30.41R WCI  26
MADISON        PTCLDY    31  17  56 N8        30.42R WCI  23
MIDDLETON      CLEAR     31  18  59 N6        30.42R WCI  25
WATERTOWN      MOCLDY    34  20  58 N8        30.39R WCI  27
MONROE         CLEAR     32  21  64 N7        30.39R WCI  26
JANESVILLE     PTCLDY    36  18  48 N12G17    30.38R WCI  27
$$

WIZ051-052-058>065-066-070>072-010200-
SOUTHEAST WISCONSIN

CITY           SKY/WX    TMP DP  RH WIND       PRES   REMARKS
MILWAUKEE      CLOUDY    36  17  46 N22G29    30.36R WCI  25
WAUKESHA       CLOUDY    34  19  55 N12G18    30.38R WCI  25
MILWAUKEE/TIMM CLOUDY    36  16  44 N18G25    30.37S WCI  25
RACINE         CLOUDY    38  22  52 N20G37    30.36R WCI  28
BURLINGTON     CLOUDY    33  18  54 N9        30.37S WCI  26
KENOSHA        CLOUDY    36  19  50 N16G25    30.34R WCI  26
FOND DU LAC    CLOUDY    35  18  49 NE20G28   30.41R WCI  24
SHEBOYGAN      CLOUDY    35  19  52 N16G28    30.39R WCI  25
WEST BEND      CLOUDY    34  19  55 N10G21    30.38R WCI  26
JUNEAU         CLOUDY    33  20  58 N10G17    30.41R WCI  25
$$

LSZ147-162-010200-
LAKE SUPERIOR

STATION/POSITION TIME  TEMP    WIND        PRES    WAVE
                       AIR SEA DIR/SP/G            HT/PER
                 (UTC) (F)     (DEG/KT/KT) (MB)    (FT/S)
W MID LAKE BUOY  0050   36 44  320/ 10/ 14 1033.3R   3/ 7
DEVILS ISLAND    0100   36     280/  6/  7 1033.6F
PORT WING        0040   29     130/  2/  3 1032.5F
SAXON HARBOR     0040   28      CALM  /  3 1032.8R
$$

LMZ867-665-643>646-010200-
LAKE MICHIGAN

STATION/POSITION TIME  TEMP    WIND        PRES    WAVE
                       AIR SEA DIR/SP/G            HT/PER
                 (UTC) (F)     (DEG/KT/KT) (MB)    (FT/S)
CHAMBERS ISLAND  0000   36     340/ 21/ 30 1029.8R
N MID LAKE BUOY  0050   36 48  360/ 23/ 29 1029.0R   7/ 6
NORTHPORT PIER   0023   36      10/ 19/ 26 1029.8R
SISTER BAY       0028           20/ 14/ 19   N/A
ALGOMA LAKESHORE 2327           10/ 18/ 26   N/A
KEWAUNEE LAKESHO 0100   35      10/ 15/ 22 1028.5R
SHEBOYGAN LAKESH 0100   37 47  360/ 30/ 35 1029.7R
PORT WASHINGTON  0000   37     360/ 12/ 20 1029.1
ATWATER BUOY     0100   40      20/ 27/ 35 1028.1R
MILWAUKEE LAKESH 0100   37     340/ 18/ 23   N/A
S MID LAKE BUOY  0050   39 48  360/ 29/ 35 1025.7R  16/10
KENOSHA   LAKESH 0100   39     360/ 32/ 39 1026.4R
$$

TC  - TEMPERATURE IN CELSIUS
VSB - VISIBILITY IN STATUTE MILES
WCI - WIND CHILL INDEX
HX  - HEAT INDEX




USA.gov is the U.S. government's official web portal to all federal, state and local government web resources and services.